{"data":{"norad_id":64673,"epoch":"2026-05-25T03:35:01.419072Z","epoch_age_seconds":65237,"freshness":"FRESH","line1":"1 64673U 25139K   26145.14932198  .00023804  00000+0  71320-3 0  9993","line2":"2 64673  53.1593 130.9586 0001256  98.8024 261.3121 15.34409693 52008","mean_motion":15.34409693,"eccentricity":0.0001256,"inclination_deg":53.1593,"raan_deg":130.9586,"arg_perigee_deg":98.8024,"mean_anomaly_deg":261.3121,"bstar":0.0007132,"rev_number":5200,"period_min":93.847165236853,"perigee_km":461.81522480436,"apogee_km":463.53363663576,"semimajor_km":6840.8114307201,"source":"CELESTRAK","updated_at":"2026-05-25T13:38:20.503789Z"}}